Wind_Speed
8 8 8 8 8 8 8 8 8 7 7 7 6 6 6 6 5 5 4 3 3 3 2 2 2 2 2 1 1 0 1 2 2 3 3 3 4 5 7 8 8 8 8
7 7 7 7 7 7 7 7 7 7 7 7 6 5 5 5 4 4 3 2 2 2 2 2 2 2 2 1 1 1 2 2 2 3 4 4 5 6 7 7 8 8 9
5 6 6 6 6 6 6 6 6 7 7 6 5 4 4 3 3 3 2 2 1 1 1 1 1 2 2 2 2 2 2 3 3 3 4 5 6 7 8 9 9 9 10
3 4 4 5 5 5 4 4 4 5 5 5 4 4 3 2 2 2 1 1 1 0 0 0 1 2 3 3 3 3 4 4 4 5 6 6 7 8 8 10 11 11 12
1 1 2 3 3 3 3 3 3 3 3 3 3 2 2 1 1 1 1 0 1 0 1 1 2 3 3 4 4 5 5 5 6 6 7 7 8 9 9 10 11 12 13
1 1 0 1 1 1 1 1 1 1 2 2 1 1 0 0 1 1 1 2 2 1 2 3 3 4 4 5 6 6 6 7 7 8 9 9 9 10 10 10 11 12 13
3 3 2 1 2 2 2 2 2 1 1 1 2 2 2 2 2 3 3 3 3 3 3 4 5 5 6 6 6 7 8 8 8 9 10 10 11 12 12 12 12 13 14
5 4 4 4 4 4 4 4 3 3 2 2 2 3 3 3 3 4 4 5 4 5 5 6 6 6 7 7 7 8 9 9 10 11 11 12 14 14 14 14 14 15 15
7 6 6 6 6 6 6 6 5 6 5 4 4 4 5 5 5 5 6 6 7 7 6 7 7 8 8 8 9 9 10 11 12 13 13 14 16 16 17 17 17 17 16
10 9 8 8 7 8 8 8 7 7 7 6 6 6 6 6 6 7 7 7 8 8 9 9 9 10 10 10 11 11 12 13 14 15 16 17 18 18 18 18 18 18 18
13 12 11 10 10 9 9 9 9 8 8 7 7 7 7 7 7 8 8 9 10 10 11 11 12 12 12 13 13 14 15 16 16 17 18 19 20 19 20 20 19 20 20
15 14 13 13 12 11 10 9 9 9 9 10 10 10 9 9 10 10 11 11 12 13 13 14 14 14 14 14 15 16 17 17 18 19 20 21 21 21 21 21 21 21 21
15 15 15 15 14 14 13 12 12 12 12 12 12 12 12 12 12 13 13 14 15 15 15 15 15 16 16 16 17 17 18 19 20 20 21 22 22 22 23 23 23 23 23
17 17 17 17 16 16 15 14 14 14 14 14 14 14 14 14 15 15 16 17 17 17 16 17 17 18 18 19 19 20 21 21 21 22 23 24 24 24 24 24 24 25 25
19 19 18 17 18 18 18 18 17 17 16 16 16 16 16 17 17 18 18 19 19 19 19 19 19 19 20 21 21 22 22 23 23 24 24 25 25 25 25 26 26 27 27
21 20 20 20 20 20 20 20 19 18 18 18 19 19 19 20 20 20 21 21 20 21 21 22 21 21 22 23 23 24 24 25 25 25 26 26 27 27 28 28 28 28 29
24 23 23 23 23 23 23 23 22 21 21 21 22 23 23 23 24 24 24 24 23 22 23 23 23 23 24 25 25 26 27 27 27 27 28 29 29 29 29 29 29 30 30
27 27 26 25 25 25 25 25 25 24 24 24 24 25 25 26 27 27 26 26 26 25 24 25 25 26 26 27 27 28 28 28 29 29 29 29 29 29 29 30 30 30 31
28 28 28 27 27 27 27 27 27 27 28 27 27 27 27 28 28 28 28 28 27 27 27 27 27 28 28 28 29 29 30 29 29 30 30 30 30 30 30 31 32 31 31
30 29 29 28 28 28 29 30 30 30 30 29 28 29 30 31 30 29 29 29 29 30 30 30 30 30 30 31 32 32 31 31 31 31 32 32 31 32 32 33 33 33 33
32 31 30 30 29 30 31 31 32 32 32 31 31 31 32 32 32 31 31 32 32 32 32 33 33 33 33 33 33 33 34 34 33 33 33 34 34 34 34 35 35 36 35
34 33 33 32 32 32 33 33 33 33 34 34 34 34 35 34 34 33 33 34 34 35 35 35 35 35 35 36 36 36 36 36 35 35 34 35 35 35 35 36 36 37 37
36 35 34 34 34 34 35 35 34 34 35 36 36 35 36 36 36 36 36 36 37 37 37 37 37 37 37 38 38 38 38 37 37 36 36 36 36 36 37 37 37 38 38
37 36 36 35 36 36 36 36 36 36 36 36 37 37 37 37 37 37 37 38 38 38 38 38 38 38 38 39 39 40 39 38 38 37 37 37 38 38 38 38 38 38 37
38 37 37 36 36 36 36 37 37 37 37 37 37 37 37 38 37 37 38 38 38 38 38 38 39 39 40 40 40 40 39 39 39 39 39 39 39 39 39 39 38 37 37
38 39 38 38 37 37 37 37 37 37 37 37 37 37 37 37 37 38 38 37 37 38 39 39 40 40 40 40 39 39 40 39 40 39 39 39 39 39 39 38 38 37 37
Wind_Direction
77 76 74 78 82 90 93 89 91 95 94 95 96 94 94 97 101 104 108 108 98 78 63 33 19 30 26 44 65 22 342 333 333 336 343 339 336 334 331 330 331 330 329
79 79 75 77 85 89 94 95 95 97 99 100 100 100 100 98 92 87 89 95 94 82 55 21 5 5 5 351 330 315 311 313 314 321 325 324 327 328 328 328 327 325 325
79 83 79 79 80 86 95 93 100 101 101 102 104 101 100 102 94 80 77 78 87 54 41 35 354 337 332 336 325 309 308 315 312 319 321 318 321 324 325 323 321 319 319
75 84 84 78 77 81 93 95 99 107 107 108 105 96 93 92 87 83 77 86 33 32 176 148 315 304 308 309 315 317 312 314 320 322 318 315 317 322 324 323 321 319 318
41 70 83 78 73 71 79 84 91 113 123 118 110 92 83 82 70 51 44 6 340 308 254 260 281 292 297 299 303 306 310 312 311 311 314 314 313 315 314 318 321 320 318
252 229 138 82 51 41 36 39 49 111 157 166 181 170 75 307 289 305 317 319 310 306 287 273 281 291 294 295 298 301 307 309 311 313 316 315 312 313 315 316 321 321 320
245 240 249 259 273 278 288 308 290 223 201 225 245 247 264 284 280 286 286 293 288 292 295 287 287 283 282 288 296 304 305 304 306 308 312 314 313 312 312 312 314 317 316
252 254 259 267 265 269 266 269 269 245 234 247 261 269 272 277 281 283 287 289 291 296 301 300 293 290 288 289 293 295 299 299 302 302 305 307 310 311 311 311 310 311 311
254 258 261 265 264 267 268 264 265 253 250 259 269 273 279 280 278 279 285 290 292 293 293 292 293 290 290 286 286 289 293 296 298 301 304 307 309 309 309 308 307 308 307
255 261 267 268 267 271 273 272 262 262 254 259 273 285 281 282 275 275 281 289 292 292 290 289 289 290 289 285 283 288 292 294 293 295 299 302 306 308 308 308 309 308 308
258 266 269 270 270 271 274 269 268 269 265 266 273 282 284 282 274 276 281 284 287 290 288 285 287 291 290 285 283 288 291 293 295 296 297 299 301 303 305 305 305 307 309
259 263 266 264 267 268 273 274 272 275 276 274 274 276 276 275 275 275 279 279 282 287 289 287 285 288 289 286 284 289 292 292 295 296 296 296 298 301 302 302 302 305 306
259 264 267 265 266 268 269 269 268 271 273 277 275 274 274 274 275 275 276 278 281 283 287 287 285 286 287 286 284 287 291 292 294 296 296 295 297 301 300 299 300 300 301
260 263 265 266 265 266 266 266 270 273 271 273 275 274 274 275 275 276 277 278 281 282 283 285 285 285 285 286 286 286 290 290 292 293 293 294 295 297 297 298 298 298 299
260 263 264 265 266 266 267 268 270 272 273 274 276 277 273 275 277 278 279 279 281 283 284 284 284 284 286 287 286 286 286 289 290 292 293 294 295 296 296 297 297 297 297
259 261 261 262 266 269 270 270 272 272 272 273 274 276 275 276 278 277 282 282 281 282 285 283 285 285 286 286 287 287 286 288 289 291 292 293 293 294 295 294 296 296 295
259 259 261 263 267 269 270 272 271 273 273 272 273 274 274 274 275 277 279 283 284 281 283 285 285 285 287 289 287 286 287 288 290 292 293 292 293 293 294 293 295 295 294
259 259 262 264 266 267 270 273 274 275 275 275 276 277 276 276 275 276 277 279 280 282 283 284 284 285 285 287 288 288 288 289 289 291 294 294 293 294 293 292 292 295 295
260 261 262 264 266 267 269 269 271 274 274 274 275 276 276 276 275 274 276 278 281 284 285 285 284 285 285 286 287 287 287 289 290 292 294 295 295 295 295 294 295 295 295
260 262 263 264 267 269 270 270 271 272 275 274 272 275 276 276 274 274 276 279 281 282 283 284 283 284 285 286 286 287 287 288 289 290 291 292 293 293 294 295 294 294 293
259 262 263 265 266 268 270 270 270 270 274 274 272 274 275 275 274 275 277 278 279 280 281 282 281 282 283 284 286 286 287 288 289 290 290 291 291 292 293 293 294 294 294
259 261 263 265 266 267 268 269 270 271 272 273 273 274 275 276 277 277 278 279 278 278 279 280 280 280 281 284 286 287 288 288 289 290 291 291 290 290 291 293 293 293 294
260 262 263 265 266 266 267 269 270 271 271 273 274 276 276 276 278 279 279 280 279 278 279 279 280 280 281 282 284 286 287 288 288 289 290 290 290 290 292 292 292 293 293
261 262 263 264 265 266 268 269 270 271 271 272 273 274 275 276 277 278 279 281 281 280 281 281 282 282 282 283 283 283 284 286 287 289 289 289 289 290 291 291 292 292 292
261 262 263 263 264 266 268 268 269 270 271 272 273 274 274 275 276 277 279 279 280 280 281 281 282 283 283 284 284 283 284 285 287 288 289 290 290 289 290 291 291 292 292
261 262 262 263 264 266 268 269 270 271 271 271 272 273 274 275 275 276 277 277 279 281 280 281 282 282 283 284 283 284 285 286 287 288 288 288 288 289 290 292 293 293 293
Height
5895 5894 5894 5893 5893 5892 5892 5892 5892 5892 5892 5892 5893 5893 5893 5893 5894 5894 5894 5894 5894 5894 5894 5894 5894 5894 5894 5894 5894 5894 5894 5894 5893 5893 5893 5892 5892 5891 5890 5889 5888 5887 5885
5896 5895 5895 5894 5894 5894 5894 5894 5893 5893 5893 5894 5894 5894 5894 5894 5894 5894 5895 5895 5894 5894 5894 5894 5894 5894 5894 5894 5894 5894 5894 5893 5893 5893 5892 5892 5892 5890 5889 5888 5887 5886 5884
5896 5896 5896 5895 5895 5895 5895 5895 5895 5894 5895 5895 5895 5895 5895 5895 5895 5895 5895 5895 5895 5894 5894 5894 5894 5894 5894 5894 5894 5893 5893 5893 5892 5892 5892 5891 5891 5890 5888 5887 5885 5884 5883
5897 5896 5896 5896 5896 5896 5896 5896 5895 5895 5895 5895 5895 5896 5896 5896 5895 5895 5895 5895 5894 5894 5894 5894 5894 5894 5894 5893 5893 5893 5892 5892 5892 5891 5890 5890 5889 5888 5887 5886 5884 5883 5881
5897 5897 5896 5896 5896 5896 5896 5896 5896 5896 5896 5896 5896 5896 5896 5895 5895 5895 5895 5894 5894 5894 5894 5893 5893 5893 5893 5893 5892 5892 5891 5891 5890 5890 5889 5888 5888 5886 5886 5884 5883 5881 5879
5897 5897 5896 5896 5896 5896 5896 5896 5896 5896 5896 5896 5896 5895 5895 5895 5895 5895 5894 5894 5893 5893 5893 5893 5893 5892 5892 5892 5891 5891 5890 5890 5889 5888 5888 5887 5886 5885 5883 5882 5881 5879 5877
5896 5896 5896 5896 5896 5895 5895 5895 5895 5895 5895 5895 5895 5895 5895 5895 5895 5894 5894 5893 5893 5893 5892 5892 5891 5891 5891 5890 5890 5889 5889 5888 5888 5887 5886 5885 5884 5882 5881 5880 5878 5876 5875
5895 5895 5895 5895 5895 5894 5894 5893 5893 5894 5894 5894 5894 5894 5894 5894 5894 5893 5893 5892 5892 5891 5891 5890 5890 5889 5889 5889 5888 5887 5887 5886 5885 5885 5884 5883 5881 5880 5878 5877 5875 5873 5872
5893 5893 5893 5893 5893 5893 5892 5892 5892 5892 5892 5893 5892 5892 5892 5892 5892 5892 5892 5891 5891 5890 5889 5889 5888 5887 5887 5886 5886 5885 5885 5884 5883 5882 5881 5880 5878 5877 5875 5873 5871 5870 5868
5891 5891 5892 5892 5891 5891 5891 5890 5890 5890 5890 5891 5891 5891 5891 5890 5890 5890 5890 5889 5889 5888 5887 5887 5886 5885 5884 5883 5883 5882 5882 5881 5880 5878 5877 5876 5875 5873 5871 5869 5868 5866 5864
5889 5889 5889 5889 5889 5889 5889 5888 5888 5888 5888 5889 5889 5889 5888 5888 5888 5887 5887 5887 5886 5886 5885 5884 5883 5882 5881 5880 5879 5879 5878 5877 5876 5875 5873 5872 5870 5869 5867 5865 5864 5861 5859
5885 5886 5886 5886 5886 5886 5886 5886 5886 5886 5886 5886 5886 5886 5885 5885 5885 5884 5884 5884 5883 5882 5881 5881 5880 5879 5878 5877 5876 5875 5874 5873 5872 5870 5869 5867 5866 5864 5862 5860 5858 5856 5854
5882 5882 5882 5883 5883 5883 5883 5883 5883 5883 5883 5883 5883 5883 5882 5882 5881 5881 5880 5880 5879 5878 5877 5877 5876 5875 5874 5873 5872 5871 5870 5869 5867 5866 5864 5862 5861 5859 5857 5855 5853 5851 5849
5878 5878 5879 5879 5879 5879 5879 5879 5879 5879 5879 5879 5879 5879 5879 5878 5877 5877 5876 5876 5875 5874 5873 5872 5871 5871 5870 5869 5867 5866 5865 5864 5862 5861 5859 5857 5855 5853 5851 5849 5847 5845 5843
5873 5874 5874 5874 5874 5875 5875 5874 5875 5875 5875 5875 5875 5875 5874 5874 5873 5873 5872 5871 5870 5869 5868 5867 5866 5866 5865 5864 5862 5861 5859 5858 5856 5855 5853 5851 5849 5847 5845 5843 5841 5839 5837
5868 5868 5869 5869 5869 5870 5870 5870 5870 5870 5870 5870 5870 5869 5869 5869 5868 5868 5867 5866 5864 5864 5863 5862 5861 5860 5859 5858 5856 5855 5853 5851 5850 5848 5846 5844 5842 5840 5838 5836 5834 5832 5830
5862 5863 5863 5864 5864 5864 5865 5865 5865 5864 5864 5864 5864 5863 5863 5863 5862 5862 5861 5860 5859 5858 5857 5856 5855 5854 5853 5851 5850 5848 5846 5845 5843 5841 5839 5837 5835 5833 5831 5828 5826 5824 5821
5855 5856 5857 5858 5858 5858 5858 5858 5858 5858 5858 5857 5857 5856 5856 5856 5856 5855 5855 5853 5852 5851 5850 5850 5849 5848 5846 5845 5843 5842 5840 5838 5836 5834 5831 5829 5827 5825 5823 5820 5818 5815 5813
5848 5849 5850 5851 5851 5851 5851 5851 5851 5851 5851 5850 5850 5850 5849 5848 5848 5848 5847 5846 5845 5844 5844 5843 5841 5840 5839 5837 5836 5834 5832 5830 5828 5826 5824 5821 5819 5817 5814 5812 5810 5808 5805
5840 5841 5842 5843 5843 5843 5843 5843 5843 5843 5843 5843 5843 5842 5841 5840 5840 5839 5839 5839 5838 5837 5836 5835 5834 5833 5831 5829 5827 5825 5824 5822 5820 5818 5815 5813 5811 5808 5806 5804 5801 5799 5797
5831 5833 5833 5834 5835 5835 5835 5835 5835 5836 5835 5834 5834 5834 5833 5832 5831 5831 5831 5830 5830 5829 5828 5827 5825 5824 5822 5820 5818 5816 5815 5813 5811 5809 5807 5804 5802 5799 5797 5794 5792 5790 5787
5822 5824 5824 5825 5826 5826 5826 5826 5826 5827 5826 5826 5825 5825 5823 5822 5821 5821 5821 5821 5820 5819 5819 5817 5816 5814 5812 5810 5808 5807 5805 5803 5801 5799 5797 5795 5792 5790 5787 5785 5782 5779 5777
5813 5814 5815 5815 5816 5816 5816 5816 5817 5817 5817 5816 5816 5815 5813 5813 5812 5812 5811 5811 5810 5809 5808 5807 5805 5804 5802 5801 5799 5797 5794 5792 5790 5789 5787 5785 5782 5780 5777 5775 5772 5769 5766
5803 5804 5805 5805 5806 5806 5806 5806 5807 5806 5806 5806 5806 5805 5804 5803 5802 5802 5801 5800 5799 5798 5797 5796 5794 5793 5792 5790 5788 5786 5784 5782 5780 5778 5776 5774 5771 5769 5767 5764 5761 5758 5755
5792 5793 5794 5795 5795 5795 5796 5796 5796 5796 5796 5796 5795 5794 5793 5792 5792 5791 5790 5789 5788 5786 5785 5784 5783 5782 5781 5779 5777 5774 5772 5771 5769 5767 5765 5763 5760 5758 5755 5753 5750 5747 5744
5780 5782 5783 5784 5784 5785 5785 5785 5785 5785 5784 5784 5784 5783 5782 5781 5781 5780 5779 5777 5776 5775 5774 5773 5772 5770 5769 5767 5765 5763 5761 5759 5757 5755 5753 5751 5749 5747 5744 5741 5739 5736 5733